This demonstration page uses our WeatherBlox Daily Observations layout. Learn more.

Left ArrowRight Arrow

Hourly Observations for June 17, 2019

Temp ( °F °C ) Dew Point ( °F °C ) Humidity (%) Winds ( mph kmh ) Pressure ( in mb ) Visibility ( mi km ) Precip ( " mm )
12:51 am 00:51 Clear 81 27.2 29 -1.7 15 15 NNW 12 19 29.67 1005 10 16 0.00 0.00
1:51 am 01:51 Clear 81 27.2 24 -4.4 12 12 NW 13 20 29.67 1005 10 16 0.00 0.00
2:51 am 02:51 Clear 78 25.6 28 -2.2 16 16 NNW 10 17 29.68 1005 10 16 0.00 0.00
3:51 am 03:51 Clear 74 23.3 28 -2.2 18 18 NNW 8 13 29.70 1006 10 16 0.00 0.00
4:51 am 04:51 Clear 72 22.2 28 -2.2 19 19 NNW 7 11 29.72 1006 10 16 0.00 0.00
5:51 am 05:51 Sunny 67 19.4 25 -3.9 20 20 SSE 5 7 29.75 1008 10 16 0.00 0.00
6:51 am 06:51 Sunny 76 24.4 28 -2.2 17 17 E 3 6 29.75 1007 10 16 0.00 0.00
7:51 am 07:51 Sunny 81 27.2 29 -1.7 15 15 SSE 5 7 29.76 1008 10 16 0.00 0.00
8:51 am 08:51 Sunny 84 28.9 28 -2.2 13 13 Calm 29.76 1008 10 16 0.00 0.00
9:51 am 09:51 Sunny 88 31.1 31 -0.6 13 13 VRB 7 11 29.76 1008 10 16 0.00 0.00
10:51 am 10:51 Sunny 91 32.8 30 -1.1 11 11 VRB 6 9 29.75 1008 10 16 0.00 0.00
11:51 am 11:51 Sunny 92 33.3 29 -1.7 10 10 VRB 5 7 29.73 1007 10 16 0.00 0.00
12:51 pm 12:51 Sunny 95 35 29 -1.7 9 9 VRB 3 6 29.69 1005 10 16 0.00 0.00
1:51 pm 13:51 Sunny 97 36.1 24 -4.4 7 7 WNW 7 11 29.67 1005 10 16 0.00 0.00
2:51 pm 14:51 Mostly Sunny 98 36.7 22 -5.6 6 6 WNW 10 17 29.65 1004 10 16 0.00 0.00
3:51 pm 15:51 Partly Cloudy 98 36.7 22 -5.6 6 6 SW 5 7 29.64 1004 10 16 0.00 0.00
4:51 pm 16:51 Partly Cloudy 98 36.7 25 -3.9 7 7 VRB 3 6 29.61 1003 10 16 0.00 0.00
5:51 pm 17:51 Mostly Sunny 99 37.2 17 -8.3 5 5 W 17 28 29.62 1003 10 16 0.00 0.00
6:51 pm 18:51 Partly Cloudy 95 35 18 -7.8 6 6 WNW 17 28 29.63 1003 10 16 0.00 0.00
7:51 pm 19:51 Mostly Clear 91 32.8 22 -5.6 8 8 WNW 14 22 29.65 1004 10 16 0.00 0.00
8:51 pm 20:51 Clear 88 31.1 24 -4.4 10 10 NNW 10 17 29.67 1005 10 16 0.00 0.00
9:51 pm 21:51 Clear 81 27.2 27 -2.8 14 14 WNW 8 13 29.70 1006 10 16 0.00 0.00
10:51 pm 22:51 Clear 77 25 28 -2.2 16 16 NW 8 13 29.72 1006 10 16 0.00 0.00
11:51 pm 23:51 Clear 77 25 28 -2.2 16 16 NW 5 7 29.72 1006 10 16 0.00 0.00

Powered by AerisWeather